This demonstration page uses our WeatherBlox Daily Observations layout. Learn more.

Hourly Observations for April 24, 2019

Temp ( °F °C ) Dew Point ( °F °C ) Humidity (%) Winds ( mph kmh ) Pressure ( in mb ) Visibility ( mi km ) Precip ( " mm )
12:15 am 00:15 Partly Cloudy 70 21 55 13 60 60 Calm 29.8 1009 10 16.09344 0 0
12:35 am 00:35 Clear 70 21 55 13 60 60 Calm 29.8 1009 10 16.09344 0 0
12:55 am 00:55 Partly Cloudy 66 19 57 14 73 73 SW 3 6 29.83 1010 10 16.09344 0 0
1:15 am 01:15 Partly Cloudy 68 20 57 14 69 69 SW 3 6 29.8 1009 10 16.09344 0 0
1:35 am 01:35 Partly Cloudy 68 20 59 15 73 73 WNW 6 9 29.8 1009 10 16.09344 0 0
1:55 am 01:55 Mostly Cloudy 70 21 59 15 69 69 WNW 13 20 29.8 1009 10 16.09344 0 0
2:15 am 02:15 Partly Cloudy 72 22 59 15 65 65 WNW 13 20 29.8 1009 10 16.09344 0 0
2:35 am 02:35 Clear 72 22 57 14 61 61 W 9 15 29.8 1009 10 16.09344 0 0
2:55 am 02:55 Clear 72 22 57 14 61 61 SW 7 11 29.8 1009 10 16.09344 0 0
3:15 am 03:15 Clear 72 22 59 15 65 65 W 8 13 29.8 1009 10 16.09344 0 0
3:35 am 03:35 Clear 72 22 59 15 65 65 W 5 7 29.8 1009 10 16.09344 0 0
3:55 am 03:55 Clear 70 21 59 15 69 69 W 6 9 29.8 1009 10 16.09344 0 0
4:15 am 04:15 Clear 70 21 59 15 69 69 WNW 3 6 29.8 1009 10 16.09344 0 0
4:35 am 04:35 Clear 70 21 59 15 69 69 WNW 6 9 29.8 1009 10 16.09344 0 0
4:55 am 04:55 Clear 70 21 59 15 69 69 NNW 9 15 29.8 1009 10 16.09344 0 0
5:10 am 05:10 Clear 68 20 61 16 78 78 NW 14 22 29.8 1009 10 16.09344 0 0
5:35 am 05:35 Clear 70 21 59 15 69 69 NW 17 28 29.8 1009 10 16.09344 0 0
5:55 am 05:55 Clear 68 20 57 14 69 69 NNW 14 22 29.8 1009 10 16.09344 0 0
6:15 am 06:15 Clear 68 20 55 13 64 64 NW 16 26 29.83 1010 10 16.09344 0 0
6:35 am 06:35 Sunny 68 20 55 13 64 64 NW 17 28 29.83 1010 10 16.09344 0 0
6:55 am 06:55 Sunny 68 20 54 12 60 60 NNW 15 24 29.83 1010 10 16.09344 0 0
7:15 am 07:15 Sunny 66 19 54 12 64 64 NNW 13 20 29.85 1011 10 16.09344 0 0
7:35 am 07:35 Sunny 64 18 54 12 68 68 NNE 8 13 29.88 1012 10 16.09344 0 0
7:55 am 07:55 Partly Cloudy 63 17 52 11 68 68 N 5 7 29.88 1012 10 16.09344 0 0
8:15 am 08:15 Sunny 63 17 52 11 68 68 NNE 9 15 29.91 1013 10 16.09344 0 0
8:35 am 08:35 Sunny 63 17 52 11 68 68 NNE 8 13 29.91 1013 10 16.09344 0 0
8:55 am 08:55 Sunny 63 17 50 10 64 64 N 12 19 29.91 1013 10 16.09344 0 0
9:15 am 09:15 Sunny 63 17 50 10 64 64 N 7 11 29.91 1013 10 16.09344 0 0
9:35 am 09:35 Sunny 63 17 50 10 64 64 N 8 13 29.91 1013 10 16.09344 0 0
9:55 am 09:55 Sunny 63 17 50 10 64 64 N 7 11 29.91 1013 10 16.09344 0 0
10:15 am 10:15 Sunny 63 17 50 10 64 64 NW 16 26 29.91 1013 10 16.09344 0 0
10:35 am 10:35 Sunny 63 17 50 10 64 64 NW 15 24 29.91 1013 10 16.09344 0 0
10:55 am 10:55 Sunny 64 18 46 8 52 52 NW 22 35 29.91 1013 10 16.09344 0 0
11:15 am 11:15 Sunny 68 20 50 10 53 53 NNW 15 24 29.91 1013 10 16.09344 0 0
11:35 am 11:35 Sunny 66 19 46 8 49 49 NW 15 24 29.91 1013 10 16.09344 0 0
11:55 am 11:55 Sunny 68 20 46 8 46 46 NW 18 30 29.91 1013 10 16.09344 0 0
12:15 pm 12:15 Sunny 70 21 46 8 43 43 NW 15 24 29.91 1013 10 16.09344 0 0
12:35 pm 12:35 Sunny 72 22 46 8 41 41 WNW 13 20 29.91 1013 10 16.09344 0 0
12:55 pm 12:55 Sunny 72 22 43 6 36 36 N 18 30 29.88 1012 10 16.09344 0 0
1:15 pm 13:15 Sunny 72 22 43 6 36 36 NNW 18 30 29.88 1012 10 16.09344 0 0
1:35 pm 13:35 Sunny 73 23 43 6 33 33 N 14 22 29.88 1012 10 16.09344 0 0
1:55 pm 13:55 Sunny 73 23 43 6 33 33 NW 10 17 29.88 1012 10 16.09344 0 0
2:15 pm 14:15 Sunny 73 23 43 6 33 33 N 7 11 29.88 1012 10 16.09344 0 0
2:35 pm 14:35 Sunny 73 23 43 6 33 33 N 7 11 29.88 1012 10 16.09344 0 0
2:55 pm 14:55 Sunny 73 23 43 6 33 33 NNW 9 15 29.85 1011 10 16.09344 0 0
3:15 pm 15:15 Sunny 73 23 41 5 31 31 NW 9 15 29.85 1011 10 16.09344 0 0
3:35 pm 15:35 Sunny 73 23 41 5 31 31 N 12 19 29.85 1011 10 16.09344 0 0
3:55 pm 15:55 Sunny 75 24 41 5 29 29 NNW 7 11 29.85 1011 10 16.09344 0 0
4:15 pm 16:15 Sunny 73 23 41 5 31 31 WNW 6 9 29.85 1011 10 16.09344 0 0
4:35 pm 16:35 Sunny 73 23 43 6 33 33 NW 7 11 29.85 1011 10 16.09344 0 0
4:55 pm 16:55 Sunny 75 24 41 5 29 29 WNW 6 9 29.85 1011 10 16.09344 0 0
5:15 pm 17:15 Sunny 75 24 41 5 29 29 NNW 5 7 29.85 1011 10 16.09344 0 0
5:35 pm 17:35 Sunny 73 23 41 5 31 31 NW 8 13 29.85 1011 10 16.09344 0 0
5:55 pm 17:55 Sunny 73 23 37 3 27 27 NW 7 11 29.85 1011 10 16.09344 0 0
6:15 pm 18:15 Sunny 73 23 39 4 29 29 NNW 6 9 29.85 1011 10 16.09344 0 0
6:35 pm 18:35 Sunny 72 22 41 5 33 33 NW 3 6 29.85 1011 10 16.09344 0 0
6:50 pm 18:50 Sunny 72 22 43 6 36 36 NW 5 7 29.85 1011 10 16.09344 0 0
7:15 pm 19:15 Sunny 72 22 41 5 33 33 NNW 6 9 29.85 1011 10 16.09344 0 0
7:35 pm 19:35 Sunny 68 20 45 7 43 43 Calm 29.85 1011 10 16.09344 0 0
7:50 pm 19:50 Sunny 70 21 43 6 38 38 Calm 29.85 1011 10 16.09344 0 0
8:15 pm 20:15 Clear 66 19 45 7 46 46 Calm 29.88 1012 10 16.09344 0 0
8:35 pm 20:35 Clear 64 18 46 8 52 52 Calm 29.88 1012 10 16.09344 0 0
8:55 pm 20:55 Clear 66 19 46 8 49 49 N 3 6 29.88 1012 10 16.09344 0 0
9:15 pm 21:15 Clear 64 18 46 8 52 52 N 5 7 29.88 1012 10 16.09344 0 0
9:35 pm 21:35 Clear 64 18 46 8 52 52 NNE 3 6 29.91 1013 10 16.09344 0 0
9:55 pm 21:55 Clear 63 17 46 8 56 56 Calm 29.91 1013 10 16.09344 0 0
10:15 pm 22:15 Clear 63 17 46 8 56 56 Calm 29.91 1013 10 16.09344 0 0
10:35 pm 22:35 Partly Cloudy 64 18 43 6 46 46 NNE 5 7 29.91 1013 10 16.09344 0 0
10:55 pm 22:55 Clear 61 16 48 9 63 63 NNE 3 6 29.91 1013 10 16.09344 0 0
11:15 pm 23:15 Clear 64 18 43 6 46 46 Calm 29.91 1013 10 16.09344 0 0
11:35 pm 23:35 Mostly Cloudy 61 16 50 10 68 68 NNE 3 6 29.91 1013 10 16.09344 0 0
11:55 pm 23:55 Cloudy 63 17 46 8 56 56 Calm 29.91 1013 10 16.09344 0 0

Powered by AerisWeather